Location: Brunsbüttel
(52.3892°N, 10.6138°E)
Time: 00:48:37
(UTC+00:00)

Cosmos 1743 Rocket - Pass Details

Date: 19 May 2025
Orbit: 598 x 626 km, 82.6° (Epoch: 23 June)

Event Time Altitude Azimuth Distance (km) Brightness Sun altitude
Rises 23:19:39 0° 344° (NNW) 2,926 8.5 -17.6°
Reaches altitude 10° 23:21:58 10° 339° (NNW) 2,012 7.2 -17.6°
Maximum altitude 23:26:14 46° 267° (W) 844 4.1 -17.6°
Enters shadow 23:27:52 31° 215° (SW) 1,098 4.4 -17.6°
